Location: Bessat
(45.8735°N, 1.9924°E)
Time: 04:47:28
(UTC+00:00)

ATLAS CENTAUR R/B - Pass Details

Date: 11 May 2021
Orbit: 472 x 671 km, 64.6° (Epoch: 13 June)

Event Time Altitude Azimuth Distance (km) Brightness Sun altitude
Exits shadow 23:38:19 21° 59° (ENE) 1,146 3.2 -25.9°
Drops below altitude 10° 23:39:47 10° 48° (NE) 1,698 4.3 -26.0°
Sets 23:42:04 0° 42° (NE) 2,612 5.4 -26.0°
